OBJECT D, 59776

Orbit data source: Space-Track

You're viewing an Uncataloged Satellite

Recently launched and/or uncataloged satellites may have evolving metadata. Metadata may include but not limited to: Owner, Maufacturer, Bus, Motor, and Mission.

OBJECT D, 59776 is a satellite owned by Sitronics (CIS) in SSO that was launched on Thu, 16 May 2024 UTC via a SOYUZ-2-1B launch vehicle from the Plesetsk Missile And Space Complex (PKMTR). Unknown objects in Earth's orbit typically refer to objects detected orbiting the Earth but have not yet been identified or cataloged. These objects could be anything from previously untracked satellites, spent rocket stages, debris from satellite collisions, or even natural meteoroids temporarily captured by Earth's gravity.

Loading next visibility...
OBJECT D details
Identifier
59776, 2024-092D
Orbit
SSO
Last TLE update17 hours ago
Origin
Flag of CISSitronics (CIS)
ManufacturerSputniks
MissionOperational spacecraft
Bus & MotorCUBESAT 3U?, Unknown motor
Mass3 kg wet, 3 kg dry
Launch date (UTC)
2024-05-16 (7 months ago)
Launch vehicle
SOYUZ-2-1B
Launch site
Plesetsk Missile And Space Complex (PKMTR)
Object typeUnknown
Shape & HBRUnknown
Radar Cross SectionSmall (<0.1 m²)

Expand to show TLE details & history

TLE from 17 hours ago
0 OBJECT D
1 59776U 24092D   24355.89755271  .00016325  00000-0  86313-3 0  9995
2 59776  97.6103 106.7531 0010487 251.3420 108.6674 15.15506822 32891
Epoch: 2024-12-20T21:32Z
Definitive object data (Epoch: 2024-12-20T21:32:28.554Z)
Latitude0.00001°
Longitude53.67765°
Altitude524.841 km
Speed7.599 km/s
True Right ascension07h 07m 00s
True Declination0° 00' 00"
Sunlit
Object was in full shadow at TLE epoch
Visualization TLE readout
Latitude-27.34422°
Longitude58.34015°
Altitude528.896 km
Speed7.598 km/s
Apparent Right ascension05h 02m 13s
Apparent Declination-41° 02' 15"
Sunlit
Object is in full shadow
Visualization observer readout
Local Sidereal Time13:53:15
Azimuth252.467° W
Elevation-54.496°
Doppler factor1
Orbital elements
Apogee altitude523.651 km
Perigee altitude509.191 km
Semi-major axis6,894.558 km
Eccentricity0.0010487
Inclination97.6103°
RAAN106.7531°
Arg. of periapsis251.342°
True anomaly108.7812°
Mean anomaly108.6674°
Eccentric anomaly108.72431°
Mean motion3.79126 °/min
BSTAR0.00086313
Orbital period94.96 mins
Loading maneuver chart data...
Loading historical data...
Loading historical data...
Loading historical data...
Loading historical data...
Loading historical data...
Loading historical data...
Loading historical data...

OBJECT D Visibility forecast

Observer location: undefined°, undefined

Span
Click to sort rows by Start time (UTC) header in descending order
Start Az.
Max El. time (UTC)
Max El. Az.
Max El.
End time (UTC)
End Az.
7 mins2024-12-21 20:17:04.103Z20.136° NNE2024-12-21 20:21:04.103Z137.562° SSE39.231°2024-12-21 20:24:04.103Z181.117° SSW
4 mins2024-12-22 06:59:04.103Z101.801° ESE2024-12-22 07:00:04.103Z77.219° E23.717°2024-12-22 07:03:04.103Z16.945° NNE
4 mins2024-12-22 08:33:04.103Z238.318° WSW2024-12-22 08:34:04.103Z258.307° W18.248°2024-12-22 08:37:04.103Z311.79° NW
|